When you browse on this site, cookies collect data to enhance your experience and personalize the content and advertising you see.
Visit our Privacy Policy to learn more. By continuing to use the site, you agree to this use of cookies and data.
  • In United Kingdom
  • List of Countries
  • For 7 days
  • Water Temperature
  • Satellite Maps
  • Weather Map
  • Weather Widgets
  • user-avatar
    Login

    Hourly Weather Shapchino

    Today, 18 July, Thursday

    Time Temperature Precipitation Wind Pressure Humidity
    00:00 +14°C° 0 mm 1 mps 740 mmHg 97%
    01:00 +14°C° 0 mm 1 mps 740 mmHg 97%
    02:00 +14°C° 0 mm 1 mps 740 mmHg 97%
    03:00 +14°C° 0 mm 1 mps 739 mmHg 97%
    04:00 +14°C° 0 mm 1 mps 739 mmHg 97%
    05:00 +14°C° 0 mm 1 mps 739 mmHg 97%
    06:00 +15°C° 0 mm 2 mps 739 mmHg 96%
    07:00 +16°C° 0 mm 2 mps 740 mmHg 92%
    08:00 +17°C° 0 mm 2 mps 740 mmHg 87%
    09:00 +19°C° 0 mm 2 mps 740 mmHg 83%
    10:00 +20°C° 0.1 mm 2 mps 740 mmHg 77%
    11:00 +21°C° 0.1 mm 3 mps 740 mmHg 71%
    12:00 +22°C° 0.1 mm 3 mps 740 mmHg 66%
    13:00 +22°C° 0.1 mm 4 mps 740 mmHg 64%
    14:00 +23°C° 0.1 mm 4 mps 740 mmHg 63%
    15:00 +23°C° 0.1 mm 5 mps 740 mmHg 62%
    16:00 +22°C° 0.4 mm 4 mps 740 mmHg 67%
    17:00 +22°C° 0.4 mm 3 mps 740 mmHg 71%
    18:00 +21°C° 0.4 mm 3 mps 740 mmHg 76%
    19:00 +19°C° 0.2 mm 3 mps 740 mmHg 80%
    20:00 +18°C° 0.2 mm 3 mps 740 mmHg 85%
    21:00 +16°C° 0.2 mm 3 mps 740 mmHg 90%
    22:00 +14°C° 0 mm 3 mps 740 mmHg 92%
    23:00 +14°C° 0 mm 3 mps 740 mmHg 93%

    Tomorrow, 19 July, Friday

    Time Temperature Precipitation Wind Pressure Humidity
    00:00 +13°C° 0 mm 3 mps 741 mmHg 95%
    01:00 +12°C° 0 mm 3 mps 741 mmHg 96%
    02:00 +12°C° 0 mm 3 mps 741 mmHg 96%
    03:00 +12°C° 0 mm 4 mps 741 mmHg 96%
    04:00 +12°C° 0.1 mm 4 mps 741 mmHg 96%
    05:00 +13°C° 0.1 mm 4 mps 741 mmHg 95%
    06:00 +13°C° 0.1 mm 5 mps 741 mmHg 95%
    07:00 +14°C° 0.2 mm 5 mps 741 mmHg 94%
    08:00 +14°C° 0.2 mm 5 mps 741 mmHg 94%
    09:00 +14°C° 0.2 mm 5 mps 741 mmHg 93%
    10:00 +15°C° 0.2 mm 5 mps 741 mmHg 92%
    11:00 +15°C° 0.2 mm 5 mps 741 mmHg 91%
    12:00 +15°C° 0.2 mm 5 mps 742 mmHg 91%
    13:00 +16°C° 0.3 mm 5 mps 742 mmHg 88%
    14:00 +17°C° 0.3 mm 6 mps 742 mmHg 84%
    15:00 +18°C° 0.3 mm 7 mps 742 mmHg 81%
    16:00 +19°C° 0.1 mm 6 mps 742 mmHg 80%
    17:00 +19°C° 0.1 mm 6 mps 742 mmHg 80%
    18:00 +19°C° 0.1 mm 6 mps 742 mmHg 79%
    19:00 +17°C° 0.1 mm 6 mps 742 mmHg 82%
    20:00 +16°C° 0.1 mm 5 mps 742 mmHg 85%
    21:00 +15°C° 0.1 mm 5 mps 743 mmHg 88%
    22:00 +15°C° 0 mm 5 mps 743 mmHg 90%
    23:00 +14°C° 0 mm 4 mps 743 mmHg 92%

    Day after tomorrow, 20 July, Saturday

    Time Temperature Precipitation Wind Pressure Humidity
    00:00 +13°C° 0 mm 4 mps 743 mmHg 95%
    01:00 +13°C° 0 mm 4 mps 743 mmHg 95%
    02:00 +13°C° 0 mm 4 mps 743 mmHg 95%
    03:00 +13°C° 0 mm 4 mps 743 mmHg 96%
    04:00 +13°C° 0 mm 5 mps 744 mmHg 94%
    05:00 +13°C° 0 mm 5 mps 744 mmHg 93%
    06:00 +14°C° 0 mm 5 mps 744 mmHg 91%
    07:00 +14°C° 0 mm 5 mps 744 mmHg 89%
    08:00 +15°C° 0 mm 5 mps 744 mmHg 88%
    09:00 +15°C° 0 mm 5 mps 745 mmHg 86%
    10:00 +16°C° 0 mm 5 mps 745 mmHg 85%
    11:00 +16°C° 0 mm 5 mps 745 mmHg 85%
    12:00 +16°C° 0 mm 6 mps 745 mmHg 85%
    13:00 +17°C° 0.3 mm 6 mps 746 mmHg 83%
    14:00 +19°C° 0.3 mm 6 mps 746 mmHg 82%
    15:00 +19°C° 0.3 mm 6 mps 746 mmHg 80%
    16:00 +19°C° 0.3 mm 5 mps 746 mmHg 82%
    17:00 +19°C° 0.3 mm 5 mps 746 mmHg 83%
    18:00 +19°C° 0.3 mm 5 mps 746 mmHg 84%
    19:00 +17°C° 0 mm 5 mps 746 mmHg 87%
    20:00 +17°C° 0 mm 4 mps 746 mmHg 89%
    21:00 +16°C° 0 mm 3 mps 747 mmHg 92%
    22:00 +14°C° 0 mm 4 mps 747 mmHg 93%
    23:00 +14°C° 0 mm 4 mps 747 mmHg 93%

    21 July, Sunday

    Time Temperature Precipitation Wind Pressure Humidity
    00:00 +14°C° 0 mm 4 mps 747 mmHg 94%
    01:00 +14°C° 0 mm 4 mps 747 mmHg 95%
    02:00 +13°C° 0 mm 4 mps 747 mmHg 96%
    03:00 +13°C° 0 mm 4 mps 747 mmHg 97%
    04:00 +13°C° 0 mm 4 mps 747 mmHg 96%
    05:00 +13°C° 0 mm 4 mps 748 mmHg 96%
    06:00 +14°C° 0 mm 4 mps 748 mmHg 95%
    07:00 +14°C° 0 mm 4 mps 748 mmHg 93%
    08:00 +15°C° 0 mm 4 mps 748 mmHg 91%
    09:00 +17°C° 0 mm 4 mps 748 mmHg 90%
    10:00 +18°C° 0 mm 4 mps 748 mmHg 83%
    11:00 +20°C° 0 mm 4 mps 748 mmHg 76%
    12:00 +21°C° 0 mm 4 mps 749 mmHg 69%
    13:00 +22°C° 0 mm 4 mps 748 mmHg 66%
    14:00 +22°C° 0 mm 4 mps 748 mmHg 63%
    15:00 +23°C° 0 mm 4 mps 748 mmHg 60%
    16:00 +23°C° 0 mm 4 mps 748 mmHg 64%
    17:00 +24°C° 0 mm 3 mps 748 mmHg 67%
    18:00 +24°C° 0 mm 3 mps 748 mmHg 71%
    19:00 +21°C° 0 mm 2 mps 748 mmHg 73%
    20:00 +19°C° 0 mm 2 mps 748 mmHg 76%
    21:00 +18°C° 0 mm 1 mps 748 mmHg 79%
    22:00 +16°C° 0 mm 1 mps 749 mmHg 82%
    23:00 +15°C° 0 mm 2 mps 749 mmHg 84%

    22 July, Monday

    Time Temperature Precipitation Wind Pressure Humidity
    00:00 +15°C° 0 mm 2 mps 749 mmHg 86%
    01:00 +14°C° 0 mm 2 mps 749 mmHg 88%
    02:00 +13°C° 0 mm 2 mps 749 mmHg 90%
    03:00 +13°C° 0 mm 2 mps 749 mmHg 92%
    04:00 +13°C° 0 mm 2 mps 749 mmHg 91%
    05:00 +14°C° 0 mm 1 mps 749 mmHg 91%
    06:00 +14°C° 0 mm 1 mps 749 mmHg 90%
    07:00 +16°C° 0 mm 2 mps 749 mmHg 84%
    08:00 +18°C° 0 mm 2 mps 749 mmHg 78%
    09:00 +19°C° 0 mm 2 mps 749 mmHg 71%
    10:00 +20°C° 0 mm 3 mps 749 mmHg 68%
    11:00 +21°C° 0 mm 3 mps 749 mmHg 64%
    12:00 +22°C° 0 mm 3 mps 749 mmHg 60%
    13:00 +24°C° 0 mm 3 mps 749 mmHg 59%
    14:00 +24°C° 0 mm 3 mps 748 mmHg 58%
    15:00 +24°C° 0 mm 3 mps 748 mmHg 57%
    16:00 +24°C° 0.1 mm 3 mps 748 mmHg 62%
    17:00 +22°C° 0.1 mm 3 mps 748 mmHg 67%
    18:00 +23°C° 0.1 mm 2 mps 748 mmHg 73%
    19:00 +20°C° 0 mm 2 mps 748 mmHg 77%
    20:00 +18°C° 0 mm 2 mps 748 mmHg 82%
    21:00 +17°C° 0 mm 2 mps 748 mmHg 86%
    22:00 +16°C° 0 mm 2 mps 748 mmHg 88%
    23:00 +16°C° 0 mm 2 mps 748 mmHg 90%

    23 July, Tuesday

    Time Temperature Precipitation Wind Pressure Humidity
    00:00 +15°C° 0 mm 2 mps 748 mmHg 92%
    01:00 +14°C° 0 mm 2 mps 748 mmHg 92%
    02:00 +14°C° 0 mm 2 mps 748 mmHg 92%
    03:00 +14°C° 0 mm 2 mps 748 mmHg 93%
    04:00 +14°C° 0 mm 2 mps 748 mmHg 92%
    05:00 +14°C° 0 mm 2 mps 748 mmHg 91%
    06:00 +14°C° 0 mm 2 mps 748 mmHg 91%
    07:00 +16°C° 0 mm 3 mps 748 mmHg 83%
    08:00 +18°C° 0 mm 3 mps 747 mmHg 76%
    09:00 +19°C° 0 mm 3 mps 747 mmHg 68%
    10:00 +20°C° 0 mm 3 mps 747 mmHg 63%
    11:00 +21°C° 0 mm 3 mps 747 mmHg 58%
    12:00 +22°C° 0 mm 4 mps 747 mmHg 53%
    13:00 +22°C° 0 mm 4 mps 747 mmHg 52%
    14:00 +23°C° 0 mm 4 mps 747 mmHg 50%
    15:00 +23°C° 0 mm 4 mps 747 mmHg 49%
    16:00 +24°C° 0 mm 3 mps 747 mmHg 54%
    17:00 +22°C° 0 mm 3 mps 747 mmHg 59%
    18:00 +22°C° 0 mm 3 mps 747 mmHg 64%
    19:00 +19°C° 0 mm 3 mps 747 mmHg 70%
    20:00 +17°C° 0 mm 3 mps 747 mmHg 77%
    21:00 +13°C° 0 mm 3 mps 747 mmHg 84%
    22:00 +14°C° 0 mm 2 mps 748 mmHg 86%
    23:00 +14°C° 0 mm 2 mps 748 mmHg 88%
    Show more